Tracking 33679 objects as of 4-Apr-2026
HD Live streaming from Space Station
objects crossing your sky now
Track ARTEMIS 2 (INTEGRITY)

FORMOSAT7-1/COSMIC2-1

Track FORMOSAT7-1/COSMIC2-1 now!
10-day predictions


NORAD ID: 44349
Int'l Code: 2019-036L
Perigee: 585.1 km
Apogee: 586.6 km
Inclination: 24.0 °
Period: 96.2 minutes
Semi major axis: 6956 km
RCS: Unknown
Launch date: June 25, 2019
Source: Taiwan (Republic of China) (ROC)
Launch site: AIR FORCE EASTERN TEST RANGE (AFETR)
Your satellite tracking list
Your tracking list is empty




NASA's NSSDC Master Catalog

Two Line Element Set (TLE):
1 44349U 19036L   26093.56009819  .00005254  00000-0  42883-3 0  9995
2 44349  23.9971 175.3831 0001046  46.6235 313.4353 14.96182574373464
Source of the keplerian elements: AFSPC